TimeCST,TemperatureF,Dew PointF,Humidity,Sea Level PressureIn,VisibilityMPH,Wind Direction,Wind SpeedMPH,Gust SpeedMPH,PrecipitationIn,Events,Conditions,WindDirDegrees,DateUTC
12:15 AM,44.6,19.4,37,30.24,10.0,ESE,8.1,-,N/A,,Clear,120,2014-01-22 06:15:00
12:35 AM,44.6,19.4,37,30.23,10.0,SE,6.9,-,N/A,,Clear,130,2014-01-22 06:35:00
12:55 AM,44.6,19.4,37,30.23,10.0,SSE,8.1,-,N/A,,Clear,150,2014-01-22 06:55:00
1:15 AM,44.6,19.4,37,30.23,10.0,SSE,6.9,-,N/A,,Clear,160,2014-01-22 07:15:00
1:35 AM,42.8,21.2,42,30.22,10.0,SSE,6.9,-,N/A,,Clear,150,2014-01-22 07:35:00
1:55 AM,39.2,21.2,49,30.22,10.0,SSE,4.6,-,N/A,,Clear,160,2014-01-22 07:55:00
2:15 AM,35.6,23.0,60,30.21,-9999.0,South,5.8,-,N/A,,Clear,190,2014-01-22 08:15:00
2:35 AM,37.4,23.0,56,30.21,10.0,South,4.6,-,N/A,,Clear,190,2014-01-22 08:35:00
2:55 AM,35.6,21.2,56,30.20,-9999.0,SSW,3.5,-,N/A,,Clear,210,2014-01-22 08:55:00
3:15 AM,35.6,21.2,56,30.19,-9999.0,SSW,3.5,-,N/A,,Clear,200,2014-01-22 09:15:00
3:35 AM,35.6,23.0,60,30.19,-9999.0,South,4.6,-,N/A,,Clear,180,2014-01-22 09:35:00
3:55 AM,32.0,21.2,64,30.19,-9999.0,South,5.8,-,N/A,,Clear,190,2014-01-22 09:55:00
4:15 AM,32.0,23.0,69,30.18,-9999.0,South,4.6,-,N/A,,Clear,170,2014-01-22 10:15:00
4:35 AM,32.0,21.2,64,30.17,-9999.0,SE,4.6,-,N/A,,Clear,140,2014-01-22 10:35:00
4:55 AM,35.6,21.2,56,30.17,-9999.0,SSE,5.8,-,N/A,,Clear,150,2014-01-22 10:55:00
5:15 AM,35.6,21.2,56,30.16,-9999.0,SE,6.9,-,N/A,,Clear,140,2014-01-22 11:15:00
5:35 AM,35.6,21.2,56,30.16,-9999.0,SE,6.9,-,N/A,,Clear,140,2014-01-22 11:35:00
5:55 AM,35.6,19.4,52,30.16,-9999.0,SE,6.9,-,N/A,,Clear,140,2014-01-22 11:55:00
6:15 AM,35.6,21.2,56,30.16,-9999.0,SE,6.9,-,N/A,,Clear,140,2014-01-22 12:15:00
6:35 AM,37.4,21.2,52,30.16,10.0,SSE,8.1,-,N/A,,Clear,160,2014-01-22 12:35:00
6:55 AM,37.4,21.2,52,30.16,10.0,SSE,8.1,-,N/A,,Clear,160,2014-01-22 12:55:00
7:15 AM,37.4,21.2,52,30.17,10.0,South,5.8,-,N/A,,Clear,170,2014-01-22 13:15:00
7:35 AM,37.4,21.2,52,30.17,10.0,South,3.5,-,N/A,,Clear,180,2014-01-22 13:35:00
7:55 AM,37.4,21.2,52,30.17,10.0,SSE,3.5,-,N/A,,Clear,160,2014-01-22 13:55:00
8:15 AM,39.2,23.0,52,30.17,10.0,SSE,4.6,-,N/A,,Clear,160,2014-01-22 14:15:00
8:35 AM,41.0,23.0,49,30.17,10.0,South,4.6,-,N/A,,Clear,180,2014-01-22 14:35:00
8:55 AM,44.6,24.8,46,30.17,10.0,South,4.6,-,N/A,,Clear,180,2014-01-22 14:55:00
9:15 AM,48.2,23.0,37,30.18,10.0,South,5.8,-,N/A,,Clear,170,2014-01-22 15:15:00
9:35 AM,53.6,23.0,30,30.17,10.0,SSE,8.1,-,N/A,,Clear,160,2014-01-22 15:35:00
9:55 AM,55.4,23.0,29,30.18,10.0,SSE,8.1,-,N/A,,Clear,160,2014-01-22 15:55:00
10:15 AM,57.2,23.0,27,30.18,10.0,South,9.2,-,N/A,,Clear,170,2014-01-22 16:15:00
10:35 AM,59.0,23.0,25,30.18,10.0,SSE,12.7,16.1,N/A,,Clear,150,2014-01-22 16:35:00
10:55 AM,60.8,23.0,23,30.17,10.0,SSE,12.7,-,N/A,,Clear,160,2014-01-22 16:55:00
11:15 AM,62.6,24.8,24,30.17,10.0,SSE,12.7,-,N/A,,Clear,160,2014-01-22 17:15:00
11:35 AM,62.6,24.8,24,30.16,10.0,SSE,10.4,-,N/A,,Partly Cloudy,160,2014-01-22 17:35:00
11:55 AM,64.4,24.8,22,30.14,10.0,SSE,11.5,-,N/A,,Partly Cloudy,160,2014-01-22 17:55:00
12:15 PM,66.2,24.8,21,30.11,10.0,SSE,10.4,16.1,N/A,,Partly Cloudy,160,2014-01-22 18:15:00
12:35 PM,66.2,24.8,21,30.09,10.0,SSE,10.4,16.1,N/A,,Partly Cloudy,160,2014-01-22 18:35:00
12:55 PM,68.0,24.8,20,30.06,10.0,SSE,15.0,20.7,N/A,,Partly Cloudy,150,2014-01-22 18:55:00
1:15 PM,69.8,23.0,17,30.04,10.0,South,12.7,20.7,N/A,,Clear,170,2014-01-22 19:15:00
1:35 PM,69.8,23.0,17,30.02,10.0,SSE,15.0,20.7,N/A,,Clear,160,2014-01-22 19:35:00
1:55 PM,71.6,23.0,16,30.00,10.0,SE,16.1,19.6,N/A,,Clear,140,2014-01-22 19:55:00
2:15 PM,71.6,23.0,16,29.99,10.0,SE,11.5,18.4,N/A,,Clear,140,2014-01-22 20:15:00
2:35 PM,71.6,23.0,16,29.99,10.0,South,9.2,18.4,N/A,,Clear,180,2014-01-22 20:35:00
2:55 PM,71.6,24.8,17,29.98,10.0,SE,13.8,17.3,N/A,,Clear,130,2014-01-22 20:55:00
3:15 PM,73.4,23.0,15,29.97,10.0,SSE,11.5,20.7,N/A,,Clear,150,2014-01-22 21:15:00
3:35 PM,73.4,23.0,15,29.96,10.0,SE,11.5,19.6,N/A,,Clear,140,2014-01-22 21:35:00
3:55 PM,73.4,23.0,15,29.96,10.0,South,11.5,19.6,N/A,,Clear,170,2014-01-22 21:55:00
4:15 PM,71.6,24.8,17,29.95,10.0,SSE,13.8,20.7,N/A,,Clear,150,2014-01-22 22:15:00
4:35 PM,71.6,24.8,17,29.95,10.0,SSE,10.4,17.3,N/A,,Clear,150,2014-01-22 22:35:00
4:55 PM,71.6,24.8,17,29.95,10.0,SSE,13.8,19.6,N/A,,Clear,150,2014-01-22 22:55:00
5:15 PM,71.6,24.8,17,29.95,10.0,SSE,12.7,19.6,N/A,,Clear,150,2014-01-22 23:15:00
5:35 PM,69.8,24.8,18,29.95,10.0,SSE,10.4,-,N/A,,Clear,160,2014-01-22 23:35:00
5:55 PM,68.0,24.8,20,29.95,10.0,SSE,11.5,16.1,N/A,,Clear,160,2014-01-22 23:55:00
6:15 PM,66.2,26.6,23,29.95,10.0,SSE,9.2,17.3,N/A,,Clear,150,2014-01-23 00:15:00
6:35 PM,64.4,26.6,24,29.96,10.0,SSE,5.8,-,N/A,,Clear,150,2014-01-23 00:35:00
6:55 PM,62.6,26.6,26,29.96,10.0,SSE,5.8,-,N/A,,Clear,160,2014-01-23 00:55:00
7:15 PM,60.8,28.4,29,29.96,10.0,SSE,6.9,-,N/A,,Clear,150,2014-01-23 01:15:00
7:35 PM,59.0,28.4,31,29.96,10.0,SE,6.9,-,N/A,,Clear,130,2014-01-23 01:35:00
7:55 PM,57.2,28.4,33,29.97,10.0,ESE,5.8,-,N/A,,Clear,120,2014-01-23 01:55:00
8:15 PM,57.2,28.4,33,29.96,10.0,SE,8.1,-,N/A,,Clear,130,2014-01-23 02:15:00
8:35 PM,57.2,28.4,33,29.96,10.0,ESE,5.8,-,N/A,,Clear,110,2014-01-23 02:35:00
8:55 PM,53.6,28.4,38,29.96,10.0,ESE,6.9,-,N/A,,Clear,120,2014-01-23 02:55:00
9:15 PM,55.4,28.4,36,29.97,10.0,ESE,6.9,-,N/A,,Clear,110,2014-01-23 03:15:00
9:35 PM,55.4,26.6,33,29.98,10.0,ESE,6.9,-,N/A,,Clear,120,2014-01-23 03:35:00
9:55 PM,55.4,26.6,33,29.98,10.0,SE,8.1,-,N/A,,Clear,130,2014-01-23 03:55:00
10:15 PM,57.2,28.4,33,29.98,10.0,SE,6.9,-,N/A,,Clear,130,2014-01-23 04:15:00
10:35 PM,57.2,28.4,33,29.98,10.0,SE,8.1,-,N/A,,Clear,140,2014-01-23 04:35:00
10:55 PM,57.2,30.2,36,29.98,10.0,SE,8.1,-,N/A,,Clear,130,2014-01-23 04:55:00
11:15 PM,55.4,30.2,38,29.98,10.0,ESE,6.9,-,N/A,,Clear,120,2014-01-23 05:15:00
11:35 PM,55.4,32.0,41,29.96,10.0,SE,10.4,-,N/A,,Clear,130,2014-01-23 05:35:00
11:55 PM,55.4,33.8,44,29.96,10.0,SE,9.2,-,N/A,,Clear,130,2014-01-23 05:55:00